SCP
0 0 0 0 0 0 0 0 0 0 0 0 0 0 0 0 0 0 0 0 0 0 0 0 0 0 0 0 0 0 0 0 0 0 0 0 0 0 0 0 0 0 0 0
0 0 0 0 0 0 0 0 0 0 0 0 0 0 0 0 0 0 0 0 0 0 0 0 0 0 0 0 0 0 0 0 0 0 0 0 0 0 0 0 0 0 0 0
0 0 0 0 0 0 0 0 0 0 0 0 0 0 0 0 0 0 0 0 0 0 0 0 0 0 0 0 0 0 0 0 0 0 0 0 0 0 0 0 0 0 0 0
0 0 0 0 0 0 0 0 0 0 0 0 0 0 0 0 0 0 0 0 0 0 0 0 0 0 0 0 0 0 0 0 0 0 0 0 0 0 0 0 0 0 0 0
0 0 0 0 0 0 0 0 0 0 0 0 0 0 0 0 0 0 0 0 0 0 0 0 0 0 0 0 0 0 0 0 0 0 0 0 0 0 0 0 0 0 0 0
0 0 0 0 0 0 0 0 0 0 0 0 0 0 0 0 0 0 0 0 0 0 0 0 0 0 0 0 0 0 0 0 0 0 0 0 0 0 0 0 0 0 0 0
0 0 0 0 0 0 0 0 0 0 0 0 0 0 0 0 0 0 0 0 0 0 0 0 0 0 0 0 0 0 0 0 0 0 0 0 0 0 0 0 0 0 0 0
0 0 0 0 0 0 0 0 0 0 0 0 0 0 0 0 0 0 0 0 0 0 0 0 0 0 0 0 0 0 0 0 0 0 0 0 0 0 0 0 0 0 0 0
0 0 0 0 0 0 0 0 0 0 0 0 0 0 0 0 0 0 0 0 0 0 0 0 0 0 0 0 0 0 0 0 0 0 0 0 0 0 0 0 0 0 0 0
0 0 0 0 0 0 0 0 0 0 0 0 0 0 0 0 0 0 0 0 0 0 0 0 0 0 0 0 0 0 0 0 0 0 0 0 0 0 0 0 0 0 0 0
0 0 0 0 0 0 0 0 0 0 0 0 0 0 0 0 0 0 0 0 0 0 0 0 0 0 0 0 0 0 0 0 0 0 0 0 0 0 0 0 0 0 0 0
0 0 0 0 0 0 0 0 0 0 0 0 0 0 0 0 0 0 0 0 0 0 0 0 0 0 0 0 0 0 0 0 0 0 0 0 0 0 0 0 0 0 0 0
0 0 0 0 0 0 0 0 0 0 0 0 0 0 0 0 0 0 0 0 0 0 0 0 0 0 0 0 0 0 0 0 0 0 0 0 0 0 0 0 0 0 0 0
0 0 0 0 0 0 0 0 0 0 0 0 0 0 0 0 0 0 0 0 0 0 0 0 0 0 0 0 0 0 0 0 0 0 0 0 0 0 0 0 0 0 0 0
0 0 0 0 0 0 0 0 0 0 0 0 0 0 0 0 0 0 0 0 0 0 0 0 0 0 0 0 0 0 0 0 0 0 0 0 0 0 0 0 0 0 0 0
0 0 0 0 0 0 0 0 0 0 0 0 0 0 0 0 0 0 0 0 0 0 0 0 0 0 0 0 0 0 0 0 0 0 0 0 0 0 0 0 0 0 0 0
0 0 0 0 0 0 0 0 0 0 0 0 0 0 0 0 0 0 0 0 0 0 0 0 0 0 0 0 0 0 0 0 0 0 0 0 0 0 0 0 0 0 0 0
0 0 0 0 0 0 0 0 0 0 0 0 0 0 0 0 0 0 0 0 0 0 0 0 0 0 0 0 0 0 0 0 0 0 0 0 0 0 0 0 0 0 0 0
0 0 0 0 0 0 0 0 0 0 0 0 0 0 0 0 0 0 0 0 0 0 0 0 0 0 0 0 0 0 0 0 0 0 0 0 0 0 0 0 0 0 0 0
0 0 0 0 0 0 0 0 0 0 0 0 0 0 0 0 0 0 0 0 0 0 0 0 0 0 0 0 0 0 0 0 0 0 0 0 0 0 0 0 0 0 0 0
0 0 0 0 0 0 0 0 0 0 0 0 0 0 0 0 0 0 0 0 0 0 0 0 0 0 0 0 0 0 0 0 0 0 0 0 0 0 0 0 0 0 0 0
0 0 0 0 0 0 0 0 0 0 0 0 0 0 0 0 0 0 0 0 0 0 0 0 0 0 0 0 0 0 0 0 0 0 0 0 0 0 0 0 0 0 0 0
0 0 0 0 0 0 0 0 0 0 0 0 0 0 0 0 0 0 0 0 0 0 0 0 0 0 0 0 0 0 0 0 0 0 0 0 0 0 0 0 0 0 0 0
0 0 0 0 0 0 0 0 0 0 0 0 0 0 0 0 0 0 0 0 0 0 0 0 0 0 0 0 0 0 0 0 0 0 0 0 0 0 0 0 0 0 0 0
0 0 0 0 0 0 0 0 0 0 0 0 0 0 0 0 0 0 0 0 0 0 0 0 0 0 0 0 0 0 0 0 0 0 0 0 0 0 0 0 0 0 0 0
0 0 0 0 0 0 0 0 0 0 0 0 0 0 0 0 0 0 0 0 0 0 0 0 0 0 0 0 0 0 0 0 0 0 0 0 0 0 0 0 0 0 0 0
Wind_Speed
5 9 14 18 19 10 6 8 10 7 2 6 11 12 9 6 6 7 7 6 5 4 3 4 5 5 6 7 8 9 10 9 8 7 8 9 9 9 10 10 13 13 13 13
6 16 18 7 9 10 9 11 12 7 3 5 9 14 9 7 7 7 8 8 7 7 5 5 5 6 7 8 9 9 10 10 9 9 8 9 10 10 10 10 13 14 14 13
18 6 7 10 8 12 14 16 16 10 2 4 7 13 12 7 5 6 7 7 8 8 8 7 7 7 8 9 9 9 11 12 13 13 11 11 10 9 10 11 10 12 13 14
15 6 7 10 13 15 14 12 13 11 9 8 6 11 9 9 9 10 10 10 10 9 8 8 8 8 9 9 9 11 12 12 12 11 11 13 12 11 10 9 9 11 12 13
11 9 10 13 12 14 7 4 7 7 9 10 8 11 8 6 11 14 14 13 12 11 10 9 8 8 8 8 9 11 13 13 13 13 14 15 14 12 9 9 11 10 10 11
5 5 7 7 3 8 9 8 5 2 5 12 14 14 12 9 12 10 16 16 15 13 11 10 9 8 9 9 9 11 13 14 13 14 14 15 16 13 12 10 9 8 7 8
9 8 6 5 8 7 10 8 5 6 8 11 7 12 12 5 5 9 18 20 18 15 13 12 12 11 10 11 11 11 14 14 12 13 13 13 14 13 12 10 8 7 6 6
12 11 15 12 13 13 16 15 11 10 9 5 6 12 7 2 2 4 13 18 18 17 14 14 13 12 12 12 12 12 13 13 12 12 12 11 11 8 8 8 7 7 5 5
13 9 4 8 4 13 12 13 8 2 1 4 9 8 6 4 5 7 14 19 20 19 17 16 14 13 13 12 12 13 13 13 12 12 11 10 9 9 8 8 7 5 5 4
10 7 5 5 4 3 6 9 7 8 7 10 9 10 9 12 15 14 18 22 22 21 19 17 15 14 13 12 12 12 12 12 12 11 9 8 8 8 7 6 6 5 5 4
11 9 5 6 15 17 11 10 10 9 7 8 8 8 6 11 16 20 22 23 25 24 22 19 16 15 14 13 12 12 12 11 11 10 9 9 8 7 6 6 5 4 3 3
11 7 7 10 4 6 13 15 16 12 10 8 8 7 3 4 9 16 18 20 22 22 21 19 18 17 16 15 14 13 12 11 10 9 8 8 7 7 6 5 4 3 3 3
14 9 6 4 6 7 12 15 17 10 6 10 11 8 4 3 6 11 15 18 20 21 21 19 18 18 17 17 15 14 13 11 10 9 8 8 7 7 6 5 4 3 2 3
11 11 15 18 9 13 14 17 19 16 12 15 19 14 6 8 10 12 15 18 20 22 22 21 20 19 18 17 16 15 13 11 10 9 9 8 7 7 6 5 3 2 2 2
10 13 16 17 8 9 14 20 25 27 26 20 20 21 17 15 15 15 15 17 19 21 23 24 23 20 19 18 17 15 13 12 11 10 9 8 7 6 5 4 3 2 1 2
10 10 10 14 15 11 11 18 24 27 26 27 23 21 9 12 10 11 13 17 20 22 24 24 22 21 20 19 18 16 14 12 11 10 9 8 7 6 5 4 2 0 1 2
9 9 10 11 10 8 19 26 23 21 22 20 27 22 7 10 14 16 16 18 20 22 22 23 22 21 19 19 18 17 15 12 11 10 9 8 7 6 5 3 1 0 2 3
11 9 6 5 8 19 13 5 19 23 21 19 13 6 12 13 12 10 12 16 18 17 17 18 17 18 17 16 16 14 13 12 11 10 9 8 7 6 5 3 1 1 2 3
8 10 7 7 10 10 6 5 10 15 17 16 15 9 6 5 4 5 8 11 12 13 13 13 14 15 15 15 15 13 12 12 11 11 10 9 8 6 5 3 2 2 3 4
2 6 7 7 8 12 6 4 3 6 10 9 14 12 10 11 8 8 8 9 9 8 8 10 11 12 13 13 14 14 13 12 12 11 10 9 8 7 5 4 3 2 3 5
7 8 12 12 11 9 2 5 7 11 8 4 9 10 13 13 7 3 7 7 8 8 9 11 12 12 12 13 13 13 13 12 10 10 9 8 7 6 5 4 3 3 4 5
13 11 11 10 12 11 9 10 11 3 2 4 6 8 10 7 4 5 6 7 9 9 10 11 11 10 10 12 13 13 12 10 10 10 9 8 7 5 4 4 3 4 4 5
9 7 6 8 5 2 7 5 2 1 3 4 5 6 9 8 7 7 7 8 9 9 9 9 9 10 9 10 11 12 11 11 11 10 9 8 6 5 5 5 4 4 4 4
5 1 2 2 1 1 3 1 2 3 3 3 4 6 9 8 8 7 7 7 8 8 9 8 9 10 10 9 9 8 11 12 11 10 9 8 7 6 6 5 4 4 4 4
5 7 4 2 0 1 4 7 7 5 3 3 3 5 8 8 7 8 7 8 9 9 8 9 11 11 11 11 10 9 11 12 11 10 8 8 7 6 5 5 5 5 6 6
7 9 9 6 8 7 8 10 11 10 9 8 7 6 5 8 8 8 8 8 9 9 9 9 10 10 10 11 11 11 11 12 12 10 9 7 6 6 5 4 4 8 9 11
Wind_Direction
167 197 215 214 214 236 233 222 239 245 189 226 241 248 227 194 207 207 198 188 174 141 87 62 55 55 63 63 69 77 86 92 99 98 93 86 76 71 66 60 57 56 56 56
170 225 229 224 211 217 221 234 247 257 213 241 260 260 245 216 221 217 203 190 175 155 133 98 83 79 77 76 78 81 84 87 89 95 95 93 97 82 76 70 62 58 58 58
211 216 201 181 184 207 225 233 241 243 199 233 272 261 230 203 202 201 197 184 173 162 146 125 104 93 88 82 83 88 90 92 96 102 106 108 100 93 81 71 66 60 61 62
234 197 156 188 205 206 230 225 237 237 244 251 229 272 233 201 209 207 194 185 174 162 150 134 121 105 94 91 93 94 95 95 98 103 106 107 103 97 89 85 80 71 63 62
218 185 187 205 209 200 221 151 199 221 237 255 221 256 254 185 228 214 194 185 175 166 156 142 128 115 105 103 102 101 98 95 97 99 102 102 100 101 100 95 87 79 70 63
241 189 214 218 160 176 133 107 94 136 216 249 224 230 256 206 220 195 183 182 175 167 160 147 135 128 119 114 110 108 104 99 99 100 101 104 107 110 107 99 93 83 76 66
223 217 205 160 131 150 172 164 190 213 218 242 183 222 249 211 196 186 180 178 174 169 166 160 155 149 139 130 123 120 114 110 109 108 106 107 109 108 104 100 91 86 76 64
210 223 197 191 191 179 195 197 202 216 225 221 182 230 245 116 137 186 177 172 171 173 173 170 165 159 151 143 138 133 126 123 121 116 113 111 108 104 100 94 90 81 73 62
206 223 156 189 192 172 180 214 219 185 73 256 228 237 251 177 195 178 174 175 179 180 179 176 173 169 163 157 152 146 139 133 131 126 123 119 114 109 106 101 91 82 70 56
197 210 170 151 139 216 203 170 161 199 210 236 242 229 220 193 201 186 184 186 185 183 182 181 179 176 172 165 158 154 149 143 140 137 131 125 118 112 109 103 92 82 69 50
198 201 167 179 201 191 172 184 200 200 217 220 246 239 207 201 189 187 192 191 186 185 184 183 182 180 176 171 168 165 160 153 151 146 140 133 126 122 117 109 99 87 71 44
193 195 207 213 206 245 210 201 190 194 210 220 245 251 118 200 190 190 191 190 188 187 186 185 183 181 181 179 177 174 170 166 159 152 147 141 137 135 130 120 109 92 68 40
163 174 189 214 210 196 218 216 214 220 199 208 226 240 119 184 191 194 190 187 187 188 188 188 188 188 187 185 182 180 177 171 162 157 154 152 151 148 141 131 117 93 58 26
166 188 209 221 211 182 201 209 208 206 219 228 231 238 204 203 200 195 193 190 189 191 191 192 193 194 192 189 186 183 180 173 166 164 164 164 162 155 146 133 117 88 43 7
180 213 226 241 236 193 204 207 207 213 222 229 237 236 226 206 204 197 191 187 189 194 197 198 198 196 193 190 189 186 181 174 169 169 171 169 160 152 142 131 117 87 22 354
195 215 215 235 230 222 231 227 217 219 226 234 245 248 228 203 199 192 190 189 194 199 202 202 201 198 195 192 189 185 182 176 172 173 172 163 158 151 144 135 127 93 339 331
189 198 207 230 210 208 235 229 221 223 224 227 235 242 167 189 199 205 200 196 200 203 203 202 202 200 197 193 187 185 180 171 170 170 165 163 158 153 148 143 148 283 312 310
188 192 211 192 179 223 234 230 215 222 227 221 228 211 185 202 207 210 202 200 204 204 203 202 200 199 195 189 185 178 169 168 168 167 166 164 159 154 151 160 196 264 285 290
197 194 204 192 221 243 261 211 192 204 227 217 217 206 167 115 116 225 211 207 207 203 199 196 193 189 183 180 173 163 164 166 169 172 172 169 163 158 162 185 219 256 277 282
214 205 213 206 216 226 229 154 168 156 234 208 203 197 160 150 203 225 182 193 197 187 178 174 170 170 173 170 161 160 166 171 178 177 170 162 158 160 173 193 221 248 264 273
182 206 223 227 236 243 185 151 155 182 231 177 186 179 169 190 211 125 146 168 174 169 164 161 162 168 168 160 159 165 170 181 174 157 152 154 156 163 173 186 214 240 259 273
185 193 210 218 233 237 151 159 185 193 84 137 159 168 179 185 141 140 156 161 162 161 160 160 161 161 156 161 165 171 179 166 149 150 153 154 156 164 167 185 213 234 250 265
212 204 201 207 226 46 161 170 130 125 154 178 173 176 173 170 176 172 173 172 172 169 166 164 162 157 161 172 175 177 169 151 151 152 156 157 161 172 181 197 212 228 234 252
221 195 185 209 254 108 181 131 196 205 204 188 175 164 169 175 178 179 177 178 179 177 175 168 164 170 178 182 187 175 154 153 153 161 164 167 174 183 189 208 214 221 230 241
186 161 163 180 162 134 240 226 218 210 195 165 162 173 184 179 181 185 187 190 190 188 182 178 185 191 190 181 183 167 157 156 162 166 170 176 183 189 195 209 218 224 229 232
178 171 169 190 185 183 208 216 208 205 208 200 188 190 198 196 196 193 198 198 193 191 185 189 198 199 192 182 183 174 168 166 165 171 178 180 183 185 195 208 230 241 251 259